Zurück zum Katalog

STARLINK-11516

AktivKommunikationVLEO
NORAD 62522·PAYLOAD·🇺🇸 United States

Gestartet Jan 8, 2025 von Cape Canaveral Space Force Station

Loading…

Nächste Überflüge (nächste 24 Stunden)

TLE

AktuellSource: CelesTrak SupGP

Epoche: Sep 15, 2026, 03:46 UTC

1 62522C 25004M   26258.15743056 -.00059798  00000+0 -46455-3 0  2586
2 62522  43.0008   8.5701 0001801 253.9710 265.7272 15.70862508    16

Verfolge STARLINK-11516 in Echtzeit mit AllMySat

Download on the App Store